,,PA_Meas_PMT16A,,PR_Meas_QMR101_102,,RH_Meas_QMH101,,SR_Meas_QMS101,,TA_Meas_QMH101,,GenWind,,GenWind,
time,status,PA,status,PR,status,RH,status,SR,status,TA,status,DirAvg,status,SpdAvg,
2012-10-10, 00:00:05,VALID,917.764,VALID,0,VALID,97.7627,VALID,0,VALID,19.2153,VALID,147,VALID,0,
2012-10-10, 00:01:05,VALID,917.735,VALID,0,VALID,97.7932,VALID,0,VALID,19.2363,VALID,147,VALID,0,
2012-10-10, 00:02:05,VALID,917.728,VALID,0,VALID,97.8008,VALID,0,VALID,19.1973,VALID,136,VALID,0,
2012-10-10, 00:03:05,VALID,917.729,VALID,0,VALID,97.7856,VALID,0,VALID,19.1987,VALID,108,VALID,0,
2012-10-10, 00:04:05,VALID,917.657,VALID,0,VALID,97.816,VALID,0,VALID,19.1583,VALID,108,VALID,0,
2012-10-10, 00:05:05,VALID,917.686,VALID,0,VALID,97.8008,VALID,0,VALID,19.1583,VALID,117,VALID,0,
2012-10-10, 00:06:05,VALID,917.685,VALID,0,VALID,97.816,VALID,0,VALID,19.1583,VALID,127,VALID,0,
2012-10-10, 00:07:05,VALID,917.691,VALID,0,VALID,97.8084,VALID,0,VALID,19.1388,VALID,127,VALID,0,
2012-10-10, 00:08:05,VALID,917.675,VALID,0,VALID,97.8313,VALID,0,VALID,19.1388,VALID,146,VALID,0,
2012-10-10, 00:09:05,VALID,917.652,VALID,0,VALID,97.8237,VALID,0,VALID,19.1388,VALID,146,VALID,0,
2012-10-10, 00:10:05,VALID,917.666,VALID,0,VALID,97.8084,VALID,0,VALID,19.0788,VALID,146,VALID,0,
2012-10-10, 00:11:05,VALID,917.644,VALID,0,VALID,97.816,VALID,0.107441,VALID,19.1193,VALID,146,VALID,0,
2012-10-10, 00:12:04,VALID,917.616,VALID,0,VALID,97.816,VALID,0,VALID,19.0998,VALID,126,VALID,0,
2012-10-10, 00:13:04,VALID,917.599,VALID,0,VALID,97.8084,VALID,0,VALID,19.1193,VALID,110,VALID,0,
2012-10-10, 00:14:04,VALID,917.591,VALID,0,VALID,97.8084,VALID,0,VALID,19.1193,VALID,116,VALID,0,
2012-10-10, 00:15:04,VALID,917.576,VALID,0,VALID,97.816,VALID,0,VALID,19.1193,VALID,116,VALID,0,
2012-10-10, 00:16:04,VALID,917.575,VALID,0,VALID,97.8084,VALID,0,VALID,19.1193,VALID,123,VALID,0,
2012-10-10, 00:17:04,VALID,917.57,VALID,0,VALID,97.816,VALID,0,VALID,19.0998,VALID,123,VALID,0,
2012-10-10, 00:18:04,VALID,917.578,VALID,0,VALID,97.816,VALID,0,VALID,19.0608,VALID,123,VALID,0,
2012-10-10, 00:19:04,VALID,917.567,VALID,0,VALID,97.816,VALID,0,VALID,19.0608,VALID,134,VALID,0,
2012-10-10, 00:20:04,VALID,917.54,VALID,0,VALID,97.8237,VALID,0,VALID,19.0608,VALID,140,VALID,0,
2012-10-10, 00:21:04,VALID,917.537,VALID,0,VALID,97.8313,VALID,0,VALID,19.0608,VALID,131,VALID,0,
2012-10-10, 00:22:04,VALID,917.495,VALID,0,VALID,97.8084,VALID,0,VALID,19.0817,VALID,139,VALID,0,
2012-10-10, 00:23:04,VALID,917.512,VALID,0,VALID,97.816,VALID,0,VALID,19.0622,VALID,140,VALID,0,
2012-10-10, 00:24:04,VALID,917.53,VALID,0,VALID,97.8008,VALID,0,VALID,19.0803,VALID,122,VALID,0,
2012-10-10, 00:25:04,VALID,917.507,VALID,0,VALID,97.8237,VALID,0,VALID,19.1012,VALID,124,VALID,0,
2012-10-10, 00:26:04,VALID,917.513,VALID,0,VALID,97.8313,VALID,0,VALID,19.1012,VALID,132,VALID,0,
2012-10-10, 00:27:04,VALID,917.469,VALID,0,VALID,97.8237,VALID,0,VALID,19.0817,VALID,132,VALID,0,
2012-10-10, 00:28:04,VALID,917.465,VALID,0,VALID,97.8313,VALID,0,VALID,19.1012,VALID,132,VALID,0,
2012-10-10, 00:29:04,VALID,917.486,VALID,0,VALID,97.8084,VALID,0,VALID,19.1012,VALID,132,VALID,0,
2012-10-10, 00:30:04,VALID,917.475,VALID,0,VALID,97.816,VALID,0,VALID,19.1207,VALID,133,VALID,0,
2012-10-10, 00:31:04,VALID,917.448,VALID,0,VALID,97.8237,VALID,0,VALID,19.1012,VALID,135,VALID,0,
2012-10-10, 00:32:04,VALID,917.447,VALID,0,VALID,97.8313,VALID,0,VALID,19.1012,VALID,136,VALID,0,
2012-10-10, 00:33:04,VALID,917.444,VALID,0,VALID,97.8465,VALID,0,VALID,19.0998,VALID,135,VALID,0,
2012-10-10, 00:34:04,VALID,917.449,VALID,0,VALID,97.8237,VALID,0,VALID,19.1012,VALID,135,VALID,0,
2012-10-10, 00:35:04,VALID,917.44,VALID,0,VALID,97.8237,VALID,0,VALID,19.0803,VALID,151,VALID,0,
2012-10-10, 00:36:04,VALID,917.389,VALID,0,VALID,97.8389,VALID,0,VALID,19.0803,VALID,151,VALID,0,
2012-10-10, 00:37:04,VALID,917.402,VALID,0,VALID,97.8313,VALID,0,VALID,19.1012,VALID,151,VALID,0,
2012-10-10, 00:38:04,VALID,917.355,VALID,0,VALID,97.816,VALID,0,VALID,19.0998,VALID,151,VALID,0,
2012-10-10, 00:39:04,VALID,917.349,VALID,0,VALID,97.8237,VALID,0,VALID,19.1402,VALID,151,VALID,0,
2012-10-10, 00:40:04,VALID,917.331,VALID,0,VALID,97.8237,VALID,0,VALID,19.1792,VALID,151,VALID,0,
2012-10-10, 00:41:04,VALID,917.332,VALID,0,VALID,97.816,VALID,0,VALID,19.1597,VALID,151,VALID,0,
2012-10-10, 00:42:04,VALID,917.367,VALID,0,VALID,97.816,VALID,0,VALID,19.1987,VALID,142,VALID,0,
2012-10-10, 00:43:04,VALID,917.367,VALID,0,VALID,97.816,VALID,0,VALID,19.1778,VALID,142,VALID,0,
2012-10-10, 00:44:04,VALID,917.356,VALID,0,VALID,97.816,VALID,0,VALID,19.1792,VALID,142,VALID,0,
2012-10-10, 00:45:04,VALID,917.323,VALID,0,VALID,97.8313,VALID,0,VALID,19.1583,VALID,142,VALID,0,
2012-10-10, 00:46:04,VALID,917.37,VALID,0,VALID,97.816,VALID,0,VALID,19.1987,VALID,142,VALID,0,
2012-10-10, 00:47:04,VALID,917.344,VALID,0,VALID,97.8313,VALID,0,VALID,19.1583,VALID,142,VALID,0,
2012-10-10, 00:48:04,VALID,917.32,VALID,0,VALID,97.8237,VALID,0,VALID,19.1778,VALID,142,VALID,0,
2012-10-10, 00:49:04,VALID,917.352,VALID,0,VALID,97.7856,VALID,0,VALID,19.2182,VALID,141,VALID,0,
2012-10-10, 00:50:04,VALID,917.328,VALID,0,VALID,97.8237,VALID,0,VALID,19.1987,VALID,141,VALID,0,
2012-10-10, 00:51:04,VALID,917.32,VALID,0,VALID,97.816,VALID,0,VALID,19.1987,VALID,142,VALID,0,
2012-10-10, 00:52:04,VALID,917.335,VALID,0,VALID,97.8237,VALID,0,VALID,19.1987,VALID,142,VALID,0,
2012-10-10, 00:53:04,VALID,917.324,VALID,0,VALID,97.8237,VALID,0,VALID,19.1792,VALID,142,VALID,0,
2012-10-10, 00:54:04,VALID,917.308,VALID,0,VALID,97.8237,VALID,0,VALID,19.1792,VALID,142,VALID,0,
2012-10-10, 00:55:04,VALID,917.31,VALID,0,VALID,97.8313,VALID,0,VALID,19.1778,VALID,142,VALID,0,
2012-10-10, 00:56:04,VALID,917.28,VALID,0,VALID,97.8008,VALID,0,VALID,19.1792,VALID,142,VALID,0,
2012-10-10, 00:57:04,VALID,917.283,VALID,0,VALID,97.816,VALID,0,VALID,19.1792,VALID,142,VALID,0,
2012-10-10, 00:58:04,VALID,917.284,VALID,0,VALID,97.8008,VALID,0,VALID,19.1987,VALID,142,VALID,0,
2012-10-10, 00:59:04,VALID,917.279,VALID,0,VALID,97.816,VALID,0,VALID,19.1792,VALID,142,VALID,0,
2012-10-10, 01:00:04,VALID,917.246,VALID,0,VALID,97.8313,VALID,0,VALID,19.1597,VALID,142,VALID,0,
2012-10-10, 01:01:04,VALID,917.229,VALID,0,VALID,97.816,VALID,0,VALID,19.1583,VALID,142,VALID,0,
2012-10-10, 01:02:04,VALID,917.235,VALID,0,VALID,97.8465,VALID,0,VALID,19.1583,VALID,142,VALID,0,
2012-10-10, 01:03:04,VALID,917.255,VALID,0,VALID,97.8313,VALID,0,VALID,19.1583,VALID,142,VALID,0,
2012-10-10, 01:04:04,VALID,917.236,VALID,0,VALID,97.8237,VALID,0,VALID,19.1597,VALID,142,VALID,0,
2012-10-10, 01:05:04,VALID,917.209,VALID,0,VALID,97.8313,VALID,0,VALID,19.1597,VALID,142,VALID,0,
2012-10-10, 01:06:04,VALID,917.222,VALID,0,VALID,97.816,VALID,0,VALID,19.1597,VALID,142,VALID,0,
2012-10-10, 01:07:04,VALID,917.193,VALID,0,VALID,97.8237,VALID,0,VALID,19.1207,VALID,142,VALID,0,
2012-10-10, 01:08:04,VALID,917.203,VALID,0,VALID,97.8084,VALID,0,VALID,19.0998,VALID,142,VALID,0,
2012-10-10, 01:09:04,VALID,917.175,VALID,0,VALID,97.8313,VALID,0,VALID,19.1207,VALID,142,VALID,0,
2012-10-10, 01:10:04,VALID,917.165,VALID,0,VALID,97.816,VALID,0,VALID,19.1012,VALID,142,VALID,0,
2012-10-10, 01:11:04,VALID,917.186,VALID,0,VALID,97.8084,VALID,0,VALID,19.1207,VALID,142,VALID,0,
2012-10-10, 01:12:04,VALID,917.181,VALID,0,VALID,97.8313,VALID,0,VALID,19.1193,VALID,142,VALID,0,
2012-10-10, 01:13:04,VALID,917.154,VALID,0,VALID,97.816,VALID,0,VALID,19.1402,VALID,142,VALID,0,
2012-10-10, 01:14:04,VALID,917.155,VALID,0,VALID,97.8237,VALID,0,VALID,19.1207,VALID,142,VALID,0,
2012-10-10, 01:15:04,VALID,917.161,VALID,0,VALID,97.8313,VALID,0,VALID,19.1402,VALID,142,VALID,0,
2012-10-10, 01:16:04,VALID,917.151,VALID,0,VALID,97.816,VALID,0,VALID,19.1012,VALID,142,VALID,0,
2012-10-10, 01:17:04,VALID,917.149,VALID,0,VALID,97.8237,VALID,0,VALID,19.0817,VALID,142,VALID,0,
2012-10-10, 01:18:04,VALID,917.144,VALID,0,VALID,97.8313,VALID,0,VALID,19.0413,VALID,142,VALID,0,
2012-10-10, 01:19:04,VALID,917.135,VALID,0,VALID,97.8313,VALID,0,VALID,19.0232,VALID,142,VALID,0,
2012-10-10, 01:20:04,VALID,917.136,VALID,0,VALID,97.8313,VALID,0,VALID,19.0427,VALID,142,VALID,0,
2012-10-10, 01:21:04,VALID,917.124,VALID,0,VALID,97.8313,VALID,0,VALID,19.0622,VALID,142,VALID,0,
2012-10-10, 01:22:04,VALID,917.129,VALID,0,VALID,97.8389,VALID,0,VALID,19.0622,VALID,142,VALID,0,
2012-10-10, 01:23:04,VALID,917.104,VALID,0,VALID,97.8389,VALID,0,VALID,19.0023,VALID,142,VALID,0,
2012-10-10, 01:24:04,VALID,917.101,VALID,0,VALID,97.8465,VALID,0,VALID,19.0232,VALID,142,VALID,0,
2012-10-10, 01:25:04,VALID,917.077,VALID,0,VALID,97.8465,VALID,0,VALID,19.0037,VALID,142,VALID,0,
2012-10-10, 01:26:04,VALID,917.052,VALID,0,VALID,97.8542,VALID,0,VALID,19.0037,VALID,142,VALID,0,
2012-10-10, 01:27:04,VALID,917.066,VALID,0,VALID,97.8313,VALID,0,VALID,18.9842,VALID,142,VALID,0,
2012-10-10, 01:28:04,VALID,917.066,VALID,0,VALID,97.8465,VALID,0,VALID,18.9647,VALID,138,VALID,0,
2012-10-10, 01:29:04,VALID,917.067,VALID,0,VALID,97.8237,VALID,0,VALID,18.9842,VALID,138,VALID,0,
2012-10-10, 01:30:04,VALID,917.028,VALID,0,VALID,97.8389,VALID,0,VALID,18.9842,VALID,135,VALID,0,
2012-10-10, 01:31:04,VALID,917.063,VALID,0,VALID,97.8542,VALID,0,VALID,18.9647,VALID,135,VALID,0,
2012-10-10, 01:32:04,VALID,917.038,VALID,0,VALID,97.8389,VALID,0,VALID,19.0037,VALID,112,VALID,0.867578,
2012-10-10, 01:33:04,VALID,917.066,VALID,0,VALID,97.8389,VALID,0,VALID,19.0218,VALID,112,VALID,0.91875,
2012-10-10, 01:34:04,VALID,917.043,VALID,0,VALID,97.8465,VALID,0,VALID,19.0218,VALID,112,VALID,0.8,
2012-10-10, 01:35:04,VALID,917.033,VALID,0,VALID,97.8542,VALID,0,VALID,19.0427,VALID,112,VALID,0.925,
2012-10-10, 01:36:04,VALID,917.032,VALID,0,VALID,97.8465,VALID,0,VALID,19.0427,VALID,112,VALID,0.893359,
2012-10-10, 01:37:04,VALID,917.019,VALID,0,VALID,97.8389,VALID,0,VALID,18.9828,VALID,112,VALID,0.573828,
2012-10-10, 01:38:04,VALID,917.002,VALID,0,VALID,97.8542,VALID,0,VALID,18.9842,VALID,112,VALID,0.660937,
2012-10-10, 01:39:04,VALID,917.025,VALID,0,VALID,97.8313,VALID,0,VALID,19.0037,VALID,112,VALID,0.735937,
2012-10-10, 01:40:04,VALID,916.981,VALID,0,VALID,97.8465,VALID,0,VALID,18.9647,VALID,112,VALID,0.476953,
2012-10-10, 01:41:04,VALID,917.009,VALID,0,VALID,97.8465,VALID,0,VALID,18.9438,VALID,112,VALID,0.496484,
2012-10-10, 01:42:04,VALID,916.945,VALID,0,VALID,97.8618,VALID,0,VALID,18.9647,VALID,112,VALID,0.303906,
2012-10-10, 01:43:04,VALID,916.949,VALID,0,VALID,97.8618,VALID,0,VALID,18.9452,VALID,112,VALID,0.548437,
2012-10-10, 01:44:04,VALID,916.912,VALID,0,VALID,97.8542,VALID,0,VALID,18.9452,VALID,112,VALID,0.507422,
2012-10-10, 01:45:04,VALID,916.941,VALID,0,VALID,97.8694,VALID,0,VALID,18.9647,VALID,112,VALID,0.570703,
2012-10-10, 01:46:04,VALID,916.917,VALID,0,VALID,97.8313,VALID,0,VALID,18.9647,VALID,112,VALID,0.49375,
2012-10-10, 01:47:04,VALID,916.897,VALID,0,VALID,97.816,VALID,0.107441,VALID,18.9633,VALID,112,VALID,0.00585938,
2012-10-10, 01:48:04,VALID,916.88,VALID,0,VALID,97.8389,VALID,0,VALID,18.9828,VALID,121,VALID,0,
2012-10-10, 01:49:04,VALID,916.853,VALID,0,VALID,97.8465,VALID,0,VALID,19.0037,VALID,152,VALID,0,
2012-10-10, 01:50:04,VALID,916.846,VALID,0,VALID,97.8465,VALID,0,VALID,18.9828,VALID,152,VALID,0,
2012-10-10, 01:51:04,VALID,916.822,VALID,0,VALID,97.8389,VALID,0,VALID,19.0037,VALID,153,VALID,0,
2012-10-10, 01:52:04,VALID,916.81,VALID,0,VALID,97.8389,VALID,0,VALID,19.0037,VALID,152,VALID,0,
2012-10-10, 01:53:04,VALID,916.786,VALID,0,VALID,97.8542,VALID,0,VALID,18.9647,VALID,152,VALID,0,
2012-10-10, 01:54:04,VALID,916.794,VALID,0,VALID,97.8542,VALID,0,VALID,18.9243,VALID,152,VALID,0,
2012-10-10, 01:55:04,VALID,916.76,VALID,0,VALID,97.8542,VALID,0,VALID,18.9257,VALID,152,VALID,0,
2012-10-10, 01:56:04,VALID,916.746,VALID,0,VALID,97.8618,VALID,0,VALID,18.9452,VALID,152,VALID,0,
2012-10-10, 01:57:04,VALID,916.753,VALID,0,VALID,97.8542,VALID,0,VALID,18.9257,VALID,152,VALID,0,
2012-10-10, 01:58:04,VALID,916.775,VALID,0,VALID,97.8542,VALID,0,VALID,18.9452,VALID,152,VALID,0,
2012-10-10, 01:59:04,VALID,916.763,VALID,0,VALID,97.8542,VALID,0,VALID,18.9452,VALID,152,VALID,0,
2012-10-10, 02:00:04,VALID,916.74,VALID,0,VALID,97.8465,VALID,0,VALID,18.9452,VALID,134,VALID,0,
2012-10-10, 02:01:04,VALID,916.734,VALID,0,VALID,97.8694,VALID,0,VALID,18.9647,VALID,133,VALID,0,
2012-10-10, 02:02:04,VALID,916.734,VALID,0,VALID,97.8465,VALID,0,VALID,18.9647,VALID,132,VALID,0,
2012-10-10, 02:03:04,VALID,916.702,VALID,0,VALID,97.8542,VALID,0,VALID,18.9842,VALID,133,VALID,0,
2012-10-10, 02:04:04,VALID,916.703,VALID,0,VALID,97.8313,VALID,0,VALID,18.9842,VALID,132,VALID,0,
2012-10-10, 02:05:04,VALID,916.72,VALID,0,VALID,97.8389,VALID,0,VALID,18.9842,VALID,133,VALID,0,
2012-10-10, 02:06:04,VALID,916.726,VALID,0,VALID,97.8694,VALID,0,VALID,18.9842,VALID,132,VALID,0,
2012-10-10, 02:07:04,VALID,916.702,VALID,0,VALID,97.877,VALID,0,VALID,18.9842,VALID,132,VALID,0,
2012-10-10, 02:08:04,VALID,916.704,VALID,0,VALID,97.877,VALID,0,VALID,18.9647,VALID,133,VALID,0,
2012-10-10, 02:09:04,VALID,916.694,VALID,0,VALID,97.8465,VALID,0,VALID,18.9647,VALID,132,VALID,0,
2012-10-10, 02:10:04,VALID,916.716,VALID,0,VALID,97.877,VALID,0,VALID,18.9062,VALID,133,VALID,0,
2012-10-10, 02:11:04,VALID,916.734,VALID,0,VALID,97.8618,VALID,0,VALID,18.8477,VALID,133,VALID,0,
2012-10-10, 02:12:04,VALID,916.733,VALID,0,VALID,97.8618,VALID,0,VALID,18.7892,VALID,133,VALID,0,
2012-10-10, 02:13:04,VALID,916.761,VALID,0,VALID,97.877,VALID,0,VALID,18.7293,VALID,133,VALID,0,
2012-10-10, 02:14:04,VALID,916.752,VALID,0,VALID,97.877,VALID,0,VALID,18.7503,VALID,133,VALID,0,
2012-10-10, 02:15:04,VALID,916.773,VALID,0,VALID,97.8618,VALID,0,VALID,18.7503,VALID,133,VALID,0,
2012-10-10, 02:16:04,VALID,916.768,VALID,0,VALID,97.8923,VALID,0,VALID,18.7907,VALID,132,VALID,0,
2012-10-10, 02:17:04,VALID,916.771,VALID,0,VALID,97.877,VALID,0,VALID,18.7892,VALID,133,VALID,0,
2012-10-10, 02:18:04,VALID,916.771,VALID,0,VALID,97.8923,VALID,0,VALID,18.8087,VALID,133,VALID,0,
2012-10-10, 02:19:04,VALID,916.798,VALID,0,VALID,97.8694,VALID,0,VALID,18.8477,VALID,132,VALID,0,
2012-10-10, 02:20:04,VALID,916.803,VALID,0,VALID,97.877,VALID,0,VALID,18.8867,VALID,132,VALID,0,
2012-10-10, 02:21:04,VALID,916.823,VALID,0,VALID,97.8618,VALID,0,VALID,18.9257,VALID,132,VALID,0,
2012-10-10, 02:22:04,VALID,916.796,VALID,0,VALID,97.8542,VALID,0,VALID,18.9062,VALID,133,VALID,0,
2012-10-10, 02:23:04,VALID,916.811,VALID,0,VALID,97.8694,VALID,0,VALID,18.9257,VALID,133,VALID,0,
2012-10-10, 02:24:04,VALID,916.793,VALID,0,VALID,97.877,VALID,0,VALID,18.9257,VALID,133,VALID,0,
2012-10-10, 02:25:04,VALID,916.801,VALID,0,VALID,97.877,VALID,0,VALID,18.9062,VALID,132,VALID,0,
2012-10-10, 02:26:04,VALID,916.817,VALID,0,VALID,97.8847,VALID,0,VALID,18.9257,VALID,133,VALID,0,
2012-10-10, 02:27:04,VALID,916.82,VALID,0,VALID,97.8694,VALID,0,VALID,18.9647,VALID,133,VALID,0,
2012-10-10, 02:28:04,VALID,916.841,VALID,0,VALID,97.8694,VALID,0,VALID,18.9647,VALID,107,VALID,0,
2012-10-10, 02:29:04,VALID,916.833,VALID,0,VALID,97.8694,VALID,0,VALID,18.8867,VALID,106,VALID,0,
2012-10-10, 02:30:04,VALID,916.825,VALID,0,VALID,97.8847,VALID,0,VALID,18.8867,VALID,107,VALID,0,
2012-10-10, 02:31:04,VALID,916.85,VALID,0,VALID,97.8847,VALID,0,VALID,18.9272,VALID,107,VALID,0,
2012-10-10, 02:32:04,VALID,916.881,VALID,0,VALID,97.8694,VALID,0,VALID,18.9257,VALID,107,VALID,0,
2012-10-10, 02:33:04,VALID,916.853,VALID,0,VALID,97.8694,VALID,0,VALID,18.9452,VALID,107,VALID,0,
2012-10-10, 02:34:04,VALID,916.846,VALID,0,VALID,97.8618,VALID,0,VALID,18.9647,VALID,107,VALID,0,
2012-10-10, 02:35:04,VALID,916.868,VALID,0,VALID,97.8465,VALID,0,VALID,18.9647,VALID,107,VALID,0,
2012-10-10, 02:36:04,VALID,916.876,VALID,0,VALID,97.8618,VALID,0,VALID,18.9633,VALID,107,VALID,0,
2012-10-10, 02:37:04,VALID,916.866,VALID,0,VALID,97.8694,VALID,0,VALID,18.9842,VALID,107,VALID,0,
2012-10-10, 02:38:04,VALID,916.863,VALID,0,VALID,97.8618,VALID,0,VALID,18.9842,VALID,110,VALID,0,
2012-10-10, 02:39:04,VALID,916.84,VALID,0,VALID,97.877,VALID,0,VALID,18.9647,VALID,130,VALID,0,
2012-10-10, 02:40:04,VALID,916.832,VALID,0,VALID,97.8618,VALID,0,VALID,18.9452,VALID,130,VALID,0,
2012-10-10, 02:41:04,VALID,916.805,VALID,0,VALID,97.8694,VALID,0,VALID,18.9452,VALID,130,VALID,0,
2012-10-10, 02:42:04,VALID,916.809,VALID,0,VALID,97.8847,VALID,0,VALID,18.9257,VALID,130,VALID,0,
2012-10-10, 02:43:04,VALID,916.821,VALID,0,VALID,97.8694,VALID,0,VALID,18.9452,VALID,130,VALID,0,
2012-10-10, 02:44:04,VALID,916.795,VALID,0,VALID,97.8694,VALID,0,VALID,18.9257,VALID,138,VALID,0,
2012-10-10, 02:45:04,VALID,916.804,VALID,0,VALID,97.8847,VALID,0,VALID,18.9272,VALID,137,VALID,0,
2012-10-10, 02:46:04,VALID,916.813,VALID,0,VALID,97.877,VALID,0,VALID,18.8867,VALID,126,VALID,0,
2012-10-10, 02:47:04,VALID,916.859,VALID,0,VALID,97.8618,VALID,0,VALID,18.9062,VALID,128,VALID,0,
2012-10-10, 02:48:04,VALID,916.854,VALID,0,VALID,97.8923,VALID,0,VALID,18.9257,VALID,128,VALID,0,
2012-10-10, 02:49:04,VALID,916.839,VALID,0,VALID,97.877,VALID,0,VALID,18.9257,VALID,128,VALID,0,
2012-10-10, 02:50:04,VALID,916.863,VALID,0,VALID,97.8847,VALID,0,VALID,18.9257,VALID,128,VALID,0,
2012-10-10, 02:51:04,VALID,916.845,VALID,0,VALID,97.877,VALID,0,VALID,18.9452,VALID,128,VALID,0,
2012-10-10, 02:52:04,VALID,916.836,VALID,0,VALID,97.8694,VALID,0,VALID,18.9647,VALID,128,VALID,0,
2012-10-10, 02:53:04,VALID,916.775,VALID,0,VALID,97.8694,VALID,0,VALID,18.9647,VALID,128,VALID,0,
2012-10-10, 02:54:04,VALID,916.78,VALID,0,VALID,97.8542,VALID,0,VALID,18.9842,VALID,128,VALID,0,
2012-10-10, 02:55:04,VALID,916.765,VALID,0,VALID,97.877,VALID,0,VALID,18.9842,VALID,128,VALID,0,
2012-10-10, 02:56:04,VALID,916.774,VALID,0,VALID,97.8694,VALID,0,VALID,18.9842,VALID,128,VALID,0,
2012-10-10, 02:57:04,VALID,916.778,VALID,0,VALID,97.8618,VALID,0,VALID,18.9842,VALID,128,VALID,0,
2012-10-10, 02:58:04,VALID,916.729,VALID,0,VALID,97.8618,VALID,0,VALID,18.9647,VALID,128,VALID,0,
2012-10-10, 02:59:04,VALID,916.727,VALID,0,VALID,97.8542,VALID,0,VALID,18.9842,VALID,138,VALID,0,
2012-10-10, 03:00:04,VALID,916.762,VALID,0,VALID,97.8389,VALID,0,VALID,18.9842,VALID,138,VALID,0,
2012-10-10, 03:01:04,VALID,916.751,VALID,0,VALID,97.8923,VALID,0,VALID,18.9647,VALID,138,VALID,0,
2012-10-10, 03:02:04,VALID,916.769,VALID,0,VALID,97.8618,VALID,0,VALID,18.9842,VALID,138,VALID,0,
2012-10-10, 03:03:04,VALID,916.793,VALID,0,VALID,97.8542,VALID,0,VALID,18.9842,VALID,138,VALID,0,
2012-10-10, 03:04:04,VALID,916.776,VALID,0,VALID,97.8618,VALID,0,VALID,18.9842,VALID,138,VALID,0,
2012-10-10, 03:05:04,VALID,916.771,VALID,0,VALID,97.8694,VALID,0,VALID,19.0037,VALID,138,VALID,0,
2012-10-10, 03:06:04,VALID,916.764,VALID,0,VALID,97.8618,VALID,0,VALID,19.0232,VALID,138,VALID,0,
2012-10-10, 03:07:04,VALID,916.801,VALID,0,VALID,97.8542,VALID,0,VALID,19.0427,VALID,138,VALID,0,
2012-10-10, 03:08:04,VALID,916.796,VALID,0,VALID,97.8542,VALID,0,VALID,19.0427,VALID,138,VALID,0,
2012-10-10, 03:09:04,VALID,916.793,VALID,0,VALID,97.8618,VALID,0,VALID,19.0427,VALID,138,VALID,0,
2012-10-10, 03:10:04,VALID,916.787,VALID,0,VALID,97.8694,VALID,0,VALID,19.0232,VALID,138,VALID,0,
2012-10-10, 03:11:04,VALID,916.78,VALID,0,VALID,97.8542,VALID,0,VALID,18.9842,VALID,138,VALID,0,
2012-10-10, 03:12:04,VALID,916.794,VALID,0,VALID,97.8847,VALID,0,VALID,18.9662,VALID,138,VALID,0,
2012-10-10, 03:13:04,VALID,916.777,VALID,0,VALID,97.8847,VALID,0,VALID,18.9257,VALID,138,VALID,0,
2012-10-10, 03:14:04,VALID,916.797,VALID,0,VALID,97.8694,VALID,0,VALID,18.9062,VALID,138,VALID,0,
2012-10-10, 03:15:04,VALID,916.771,VALID,0,VALID,97.8694,VALID,0,VALID,18.9062,VALID,138,VALID,0,
2012-10-10, 03:16:04,VALID,916.802,VALID,0,VALID,97.8618,VALID,0,VALID,18.8867,VALID,138,VALID,0,
2012-10-10, 03:17:04,VALID,916.765,VALID,0,VALID,97.877,VALID,0,VALID,18.9257,VALID,138,VALID,0,
2012-10-10, 03:18:04,VALID,916.773,VALID,0,VALID,97.8618,VALID,0,VALID,18.9257,VALID,138,VALID,0,
2012-10-10, 03:19:04,VALID,916.752,VALID,0,VALID,97.8618,VALID,0,VALID,18.9452,VALID,138,VALID,0,
2012-10-10, 03:20:04,VALID,916.775,VALID,0,VALID,97.877,VALID,0,VALID,18.9257,VALID,138,VALID,0,
2012-10-10, 03:21:04,VALID,916.766,VALID,0,VALID,97.8694,VALID,0,VALID,18.9647,VALID,138,VALID,0,
2012-10-10, 03:22:04,VALID,916.776,VALID,0,VALID,97.8618,VALID,0,VALID,18.9842,VALID,117,VALID,0,
2012-10-10, 03:23:04,VALID,916.774,VALID,0,VALID,97.8618,VALID,0,VALID,19.0037,VALID,117,VALID,0,
2012-10-10, 03:24:04,VALID,916.752,VALID,0,VALID,97.8618,VALID,0,VALID,19.0232,VALID,117,VALID,0,
2012-10-10, 03:25:04,VALID,916.738,VALID,0,VALID,97.8542,VALID,0,VALID,19.0037,VALID,117,VALID,0,
2012-10-10, 03:26:04,VALID,916.729,VALID,0,VALID,97.8618,VALID,0,VALID,19.0037,VALID,118,VALID,0,
2012-10-10, 03:27:04,VALID,916.753,VALID,0,VALID,97.8847,VALID,0,VALID,19.0037,VALID,129,VALID,0,
2012-10-10, 03:28:04,VALID,916.712,VALID,0,VALID,97.8618,VALID,0,VALID,19.0037,VALID,139,VALID,0,
2012-10-10, 03:29:04,VALID,916.715,VALID,0,VALID,97.8694,VALID,0,VALID,18.9842,VALID,139,VALID,0,
2012-10-10, 03:30:04,VALID,916.706,VALID,0,VALID,97.8923,VALID,0,VALID,18.9842,VALID,139,VALID,0,
2012-10-10, 03:31:04,VALID,916.707,VALID,0,VALID,97.8618,VALID,0,VALID,18.9842,VALID,139,VALID,0,
2012-10-10, 03:32:04,VALID,916.696,VALID,0,VALID,97.8694,VALID,0,VALID,18.9647,VALID,139,VALID,0,
2012-10-10, 03:33:04,VALID,916.698,VALID,0,VALID,97.8694,VALID,0,VALID,18.9647,VALID,139,VALID,0,
2012-10-10, 03:34:04,VALID,916.735,VALID,0,VALID,97.8618,VALID,0,VALID,18.9452,VALID,139,VALID,0,
2012-10-10, 03:35:04,VALID,916.74,VALID,0,VALID,97.877,VALID,0,VALID,18.9452,VALID,139,VALID,0,
2012-10-10, 03:36:04,VALID,916.775,VALID,0,VALID,97.8923,VALID,0,VALID,18.9647,VALID,139,VALID,0,
2012-10-10, 03:37:04,VALID,916.731,VALID,0,VALID,97.877,VALID,0,VALID,18.9452,VALID,139,VALID,0,
2012-10-10, 03:38:04,VALID,916.77,VALID,0,VALID,97.8847,VALID,0,VALID,18.9647,VALID,126,VALID,0.0417969,
2012-10-10, 03:39:04,VALID,916.754,VALID,0,VALID,97.877,VALID,0,VALID,18.9647,VALID,127,VALID,0,
2012-10-10, 03:40:04,VALID,916.779,VALID,0,VALID,97.877,VALID,0,VALID,18.9647,VALID,127,VALID,0,
2012-10-10, 03:41:04,VALID,916.78,VALID,0,VALID,97.877,VALID,0,VALID,18.9647,VALID,136,VALID,0,
2012-10-10, 03:42:04,VALID,916.813,VALID,0,VALID,97.8618,VALID,0,VALID,18.9647,VALID,129,VALID,0,
2012-10-10, 03:43:04,VALID,916.813,VALID,0,VALID,97.8847,VALID,0,VALID,18.9647,VALID,130,VALID,0,
2012-10-10, 03:44:04,VALID,916.834,VALID,0,VALID,97.8694,VALID,0,VALID,18.9842,VALID,130,VALID,0,
2012-10-10, 03:45:04,VALID,916.879,VALID,0,VALID,97.8694,VALID,0,VALID,18.9842,VALID,130,VALID,0,
2012-10-10, 03:46:04,VALID,916.898,VALID,0,VALID,97.8618,VALID,0,VALID,18.9647,VALID,130,VALID,0,
2012-10-10, 03:47:04,VALID,916.903,VALID,0,VALID,97.8618,VALID,0,VALID,18.9647,VALID,130,VALID,0,
2012-10-10, 03:48:04,VALID,916.93,VALID,0,VALID,97.8618,VALID,0,VALID,18.9647,VALID,130,VALID,0,
2012-10-10, 03:49:04,VALID,916.903,VALID,0,VALID,97.8618,VALID,0,VALID,18.9842,VALID,130,VALID,0,
2012-10-10, 03:50:04,VALID,916.923,VALID,0,VALID,97.8694,VALID,0,VALID,18.9842,VALID,130,VALID,0,
2012-10-10, 03:51:04,VALID,916.908,VALID,0,VALID,97.8542,VALID,0,VALID,19.0037,VALID,130,VALID,0,
2012-10-10, 03:52:04,VALID,916.917,VALID,0,VALID,97.8923,VALID,0,VALID,19.0023,VALID,130,VALID,0,
2012-10-10, 03:53:04,VALID,916.886,VALID,0,VALID,97.877,VALID,0,VALID,19.0218,VALID,130,VALID,0,
2012-10-10, 03:54:04,VALID,916.876,VALID,0,VALID,97.8542,VALID,0,VALID,19.0218,VALID,130,VALID,0,
2012-10-10, 03:55:04,VALID,916.836,VALID,0,VALID,97.8694,VALID,0,VALID,19.0023,VALID,130,VALID,0,
2012-10-10, 03:56:04,VALID,916.834,VALID,0,VALID,97.8618,VALID,0,VALID,19.0023,VALID,130,VALID,0,
2012-10-10, 03:57:04,VALID,916.824,VALID,0,VALID,97.8694,VALID,0.107441,VALID,18.9828,VALID,130,VALID,0,
2012-10-10, 03:58:04,VALID,916.836,VALID,0,VALID,97.8465,VALID,0,VALID,18.9828,VALID,130,VALID,0,